This demonstration page uses our WeatherBlox Daily Observations layout. Learn more.

Left ArrowRight Arrow

39.01783, -85.05884

Hourly Observations for August 8, 2021

Temp ( °F °C ) Dew Point ( °F °C ) Humidity (%) Winds ( mph kmh ) Pressure ( in mb ) Visibility ( mi km ) Precip ( " mm )
12:52 am 00:52 Partly Cloudy 72 22.2 62 16.7 71 71 SSW 8 13 30.00 1016 10 16 0.00 0.00
1:52 am 01:52 Partly Cloudy 70 21.1 64 17.8 82 82 SSW 6 9 29.99 1016 10 16 0.00 0.00
2:52 am 02:52 Partly Cloudy 70 21.1 65 18.3 84 84 SSW 8 13 29.98 1015 10 16 0.00 0.00
3:52 am 03:52 Partly Cloudy 69 20.6 65 18.3 87 87 SSW 6 9 29.97 1015 9 14 0.00 0.00
4:52 am 04:52 Partly Cloudy 68 20 64 17.8 87 87 SSW 5 7 29.98 1015 8 13 0.00 0.00
5:52 am 05:52 Partly Cloudy with Mist and Fog 67 19.4 64 17.8 91 91 SSW 5 7 30.01 1016 6 10 0.00 0.00
6:52 am 06:52 Mostly Sunny 69 20.6 65 18.3 87 87 SW 3 6 30.02 1017 7 11 0.00 0.00
7:52 am 07:52 Mostly Cloudy 71 21.7 67 19.4 87 87 SSW 5 7 30.03 1017 7 11 0.00 0.00
8:52 am 08:52 Mostly Cloudy 74 23.3 67 19.4 79 79 SSW 5 7 30.04 1017 9 14 0.00 0.00
9:52 am 09:52 Partly Cloudy 78 25.6 67 19.4 69 69 WSW 5 7 30.04 1017 10 16 0.00 0.00
10:52 am 10:52 Partly Cloudy 81 27.2 67 19.4 62 62 SW 8 13 30.04 1017 10 16 0.00 0.00
11:52 am 11:52 Partly Cloudy 84 28.9 67 19.4 57 57 W 6 9 30.04 1017 10 16 0.00 0.00
12:52 pm 12:52 Partly Cloudy 85 29.4 67 19.4 55 55 WSW 7 11 30.04 1017 10 16 0.00 0.00
1:52 pm 13:52 Partly Cloudy 87 30.6 67 19.4 51 51 SSW 10 17 30.03 1017 10 16 0.00 0.00
2:52 pm 14:52 Partly Cloudy 88 31.1 66 18.9 48 48 SW 8 13 30.02 1017 10 16 0.00 0.00
3:52 pm 15:52 Mostly Cloudy 89 31.7 66 18.9 47 47 SW 7 11 30.01 1016 10 16 0.00 0.00
4:52 pm 16:52 Partly Cloudy 87 30.6 65 18.3 48 48 SSW 6 9 29.99 1016 10 16 0.00 0.00
5:52 pm 17:52 Mostly Cloudy 89 31.7 66 18.9 47 47 S 13 20 29.98 1015 10 16 0.00 0.00
6:52 pm 18:52 Mostly Sunny 86 30 66 18.9 51 51 S 13 20 29.97 1015 10 16 0.00 0.00
7:52 pm 19:52 Mostly Sunny 84 28.9 66 18.9 55 55 S 13 20 29.96 1015 10 16 0.00 0.00
8:52 pm 20:52 Mostly Clear 80 26.7 66 18.9 62 62 S 7 11 30.00 1016 10 16 0.00 0.00
9:52 pm 21:52 Clear 78 25.6 66 18.9 67 67 S 6 9 30.01 1016 10 16 0.00 0.00
10:52 pm 22:52 Clear 77 25 66 18.9 69 69 S 7 11 30.02 1017 10 16 0.00 0.00
11:52 pm 23:52 Clear 76 24.4 66 18.9 72 72 SSW 6 9 30.02 1017 10 16 0.00 0.00

Powered by AerisWeather